BURGAS current weather conditions

sailwx.info

Last reported at 2018-Jan-20 19:05 UTC.
Time now 2018-Jan-21 07:02 UTC

Location: N 42°34' E 027°31'.
View on Google Maps.

See reports from other nearby stations

  
Tides and Currents Weather Stations Pressure Air Temp Water Temp Dewpoint Dewpoint Depression Visibility Wind Speed Wind Dir Waves Ship Positions
date/time (UTC)wind fromknots sea level pressurealtimeterstation pressurevisibilityair tempwater tempwave heightnotes
2018-Jan-21 06:00 060 5 5.4 1.0
2018-Jan-21 05:30 100 6 5.4 1.0
2018-Jan-21 05:00 040 2 5.4 1.0
2018-Jan-21 04:30 060 4 5.4 1.0
2018-Jan-21 04:00 5.4-0.0
2018-Jan-21 03:30 360 4 5.4-0.0
2018-Jan-21 03:00 360 5 5.4-0.0
2018-Jan-21 02:30 210 2 5.4 1.0
2018-Jan-21 02:00 200 6 5.4 1.0
2018-Jan-21 01:30 5.4 2.0
2018-Jan-21 01:00 280 9 5.4 2.0
2018-Jan-21 00:30 230 6 5.4 1.0
2018-Jan-21 00:00 250 7 5.4 3.0
2018-Jan-20 23:30 260 8 5.4 2.0
2018-Jan-20 23:00 270 7 5.4 2.0 Light drizzle snow.
2018-Jan-20 22:30 280 12 5.4 3.0 Rain.
2018-Jan-20 22:00 260 13 5.4 3.0 Rain.
2018-Jan-20 21:30 290 11 5.4 3.0 Rain.
2018-Jan-20 21:00 300 6 5.4 4.0 Rain.
2018-Jan-20 20:30 4.9 4.0 Rain.
2018-Jan-20 20:00 340 8 5.4 5.0 Rain.
2018-Jan-20 19:30 010 8 5.4 5.0 Rain.
2018-Jan-20 19:00 010 7 5.4 5.0 Rain.
2018-Jan-20 18:30 020 6 5.4 6.0 Light rain.
2018-Jan-20 18:00 030 6 5.4 6.0 Rain.
2018-Jan-20 17:30 050 6 5.4 7.0 Light rain.
2018-Jan-20 17:00 020 2 5.4 7.0 Light rain.
2018-Jan-20 16:30 120 6 5.4 7.0
2018-Jan-20 16:00 140 5 5.4 7.0
2018-Jan-20 15:30 140 5 5.4 7.0
2018-Jan-20 15:00 120 6 5.4 7.0
2018-Jan-20 14:30 130 2 5.4 8.0
2018-Jan-20 14:00 5.4 9.0
2018-Jan-20 13:30 200 2 5.4 9.0
2018-Jan-20 13:00 250 4 5.4 9.0
2018-Jan-20 12:30 260 6 5.4 9.0
2018-Jan-20 12:00 260 6 5.4 9.0
2018-Jan-20 11:30 250 6 5.4 8.0
2018-Jan-20 11:00 250 5 5.4 8.0
2018-Jan-20 10:30 270 7 5.4 8.0
2018-Jan-20 10:00 260 7 5.4 7.0
2018-Jan-20 09:30 250 8 5.4 7.0
2018-Jan-20 09:00 250 8 5.4 7.0
2018-Jan-20 08:30 260 7 5.4 6.0
2018-Jan-20 08:00 260 6 5.4 5.0
2018-Jan-20 07:30 260 7 5.4 4.0
2018-Jan-20 07:00 250 6 5.4 3.0
2018-Jan-20 06:30 260 6 5.4 2.0
2018-Jan-20 06:00 250 6 5.4 1.0
2018-Jan-20 05:30 240 6 5.4 2.0
2018-Jan-20 05:00 220 6 5.4 2.0
2018-Jan-20 04:30 260 7 5.4 3.0
2018-Jan-20 04:00 250 7 5.4 3.0
2018-Jan-20 03:30 250 7 5.4 2.0
2018-Jan-20 03:00 260 6 5.4 2.0
2018-Jan-20 02:30 250 7 5.4 2.0
2018-Jan-20 02:00 250 9 5.4 3.0
2018-Jan-20 01:30 260 7 5.4 1.0
2018-Jan-20 01:00 260 6 5.4 2.0
2018-Jan-20 00:30 260 6 5.4 2.0
2018-Jan-20 00:00 250 6 5.4 2.0
2018-Jan-19 23:30 250 7 5.4 2.0
2018-Jan-19 23:00 250 6 5.4 2.0
2018-Jan-19 22:30 260 7 5.4 2.0
2018-Jan-19 22:00 250 6 5.4 2.0
2018-Jan-19 21:30 270 5 5.4 4.0
2018-Jan-19 21:00 5.4 4.0
2018-Jan-19 20:30 210 2 5.4 4.0
2018-Jan-19 20:00 180 2 5.4 4.0
2018-Jan-19 19:30 240 2 5.4 5.0
2018-Jan-19 19:00 250 5 5.4 4.0
2018-Jan-19 18:30 260 6 5.4 4.0
2018-Jan-19 18:00 270 6 5.4 4.0
2018-Jan-19 17:30 260 6 5.4 4.0
2018-Jan-19 17:00 270 7 5.4 4.0
2018-Jan-19 16:30 260 8 5.4 4.0
2018-Jan-19 16:00 250 7 5.4 6.0
2018-Jan-19 15:30 250 6 5.4 6.0
2018-Jan-19 15:00 280 6 5.4 8.0
2018-Jan-19 14:30 280 6 5.4 9.0
2018-Jan-19 14:00 250 7 5.4 9.0
2018-Jan-19 13:30 270 6 5.4 9.0
2018-Jan-19 13:00 260 11 5.410.0
2018-Jan-19 12:30 250 12 5.411.0
2018-Jan-19 12:00 260 13 5.410.0
2018-Jan-19 11:30 250 9 5.410.0
2018-Jan-19 11:00 240 11 5.4 9.0
2018-Jan-19 10:30 240 14 5.4 8.0
2018-Jan-19 10:00 240 13 5.4 7.0
2018-Jan-19 09:30 260 13 5.4 7.0
2018-Jan-19 09:00 270 13 5.4 6.0
2018-Jan-19 08:30 280 13 5.4 5.0
2018-Jan-19 08:00 270 8 5.4 3.0
2018-Jan-19 07:30 270 12 5.4 2.0
2018-Jan-19 07:00 270 12 5.4 1.0